Change the Weather History Date:

Monday, May 19, 2014

  Actual Average Record
Temperature  
Mean Temperature 63 °F -  
Max Temperature 75 °F 68 °F 87 °F (2012)
Min Temperature 51 °F 49 °F 33 °F (2002)
Degree Days  
Heating Degree Days 2    
Growing Degree Days 13 (Base 50)    
Moisture  
Dew Point 50 °F    
Average Humidity 64    
Maximum Humidity 82    
Minimum Humidity 46    
Precipitation  
Precipitation 0.04 in - - ()
Sea Level Pressure  
Sea Level Pressure 29.97 in    
Wind  
Wind Speed 15 mph (SSE)    
Max Wind Speed 28 mph    
Max Gust Speed 41 mph    
Visibility 10 miles    
Events Rain    
Averages and records for this station are not official NWS values.
T = Trace of Precipitation, MM = Missing Value Source: NWS Daily Summary

Daily Weather History Graph

Daily Weather History Graph

Search for Another Location

Airport or City:

Trip Planner

Search our weather history database for the weather conditions in past years. The results will help you decide how hot, cold, wet, or windy it might be!

Date:

Astronomy

May. 19, 2014 Rise Set
Actual Time 5:39 AM CDT 8:23 PM CDT
Civil Twilight 5:07 AM CDT 8:55 PM CDT
Nautical Twilight 4:26 AM CDT 9:36 PM CDT
Astronomical Twilight 3:39 AM CDT 10:23 PM CDT
Moon 12:09 AM CDT (5/19) 10:39 AM CDT (5/19)
Length of Visible Light 15h 48m
Length of Day
14h 43m
Waning Gibbous, 71% of the Moon is Illuminated
May 19
Waning Gibbous
May 21
Last Quarter
May 28
New
Jun 5
First Quarter
Jun 12
Full

Hourly Weather History & Observations

Time (CDT) Temp. Dew Point Humidity Pressure Visibility Wind Dir Wind Speed Gust Speed Precip Events Conditions
12:15 AM 59.0 °F 41.0 °F 51% 30.13 in 10.0 mi South 11.5 mph - N/A   Clear
12:35 AM 57.2 °F 41.0 °F 55% 30.14 in 10.0 mi South 10.4 mph 17.3 mph N/A   Clear
1:15 AM 57.2 °F 41.0 °F 55% 30.13 in 10.0 mi SSE 12.7 mph - N/A   Partly Cloudy
1:35 AM 57.2 °F 41.0 °F 55% 30.13 in 10.0 mi SSE 11.5 mph - N/A   Mostly Cloudy
1:55 AM 57.2 °F 41.0 °F 55% 30.12 in 10.0 mi SSE 17.3 mph - N/A   Overcast
2:15 AM 55.4 °F 42.8 °F 63% 30.14 in 10.0 mi SSE 9.2 mph - N/A   Mostly Cloudy
2:35 AM 55.4 °F 42.8 °F 63% 30.14 in 10.0 mi SSE 11.5 mph - N/A   Mostly Cloudy
2:55 AM 55.4 °F 44.6 °F 67% 30.13 in 10.0 mi SE 11.5 mph - N/A   Overcast
3:15 AM 53.6 °F 44.6 °F 72% 30.14 in 7.0 mi SSE 12.7 mph - N/A Rain Light Rain
3:35 AM 51.8 °F 46.4 °F 82% 30.14 in 7.0 mi SSE 10.4 mph - N/A Rain Light Rain
3:55 AM 51.8 °F 46.4 °F 82% 30.14 in 6.0 mi SSE 12.7 mph - 0.04 in Rain Light Rain
4:35 AM 51.8 °F 46.4 °F 82% 30.14 in 10.0 mi SE 9.2 mph - N/A   Overcast
4:55 AM 51.8 °F 46.4 °F 82% 30.14 in 10.0 mi SE 10.4 mph - N/A   Overcast
5:15 AM 51.8 °F 46.4 °F 82% 30.13 in 10.0 mi SE 10.4 mph - N/A   Overcast
5:35 AM 51.8 °F 46.4 °F 82% 30.11 in 10.0 mi SE 12.7 mph - N/A   Mostly Cloudy
5:55 AM 51.8 °F 46.4 °F 82% 30.11 in 10.0 mi SE 11.5 mph - N/A   Overcast
6:15 AM 51.8 °F 46.4 °F 82% 30.11 in 10.0 mi SE 12.7 mph 19.6 mph N/A   Overcast
6:35 AM 51.8 °F 46.4 °F 82% 30.11 in 10.0 mi SE 13.8 mph - N/A   Overcast
6:55 AM 51.8 °F 46.4 °F 82% 30.10 in 10.0 mi SE 16.1 mph - N/A   Overcast
7:15 AM 51.8 °F 46.4 °F 82% 30.11 in 10.0 mi SE 12.7 mph 19.6 mph N/A   Overcast
7:35 AM 53.6 °F 46.4 °F 77% 30.10 in 10.0 mi SE 11.5 mph 17.3 mph N/A   Overcast
8:35 AM 55.4 °F 46.4 °F 72% 30.07 in 10.0 mi SE 16.1 mph 24.2 mph N/A   Overcast
9:35 AM 57.2 °F 46.4 °F 67% 30.06 in 10.0 mi SE 18.4 mph 26.5 mph N/A   Overcast
9:55 AM 57.2 °F 46.4 °F 67% 30.06 in 10.0 mi SE 16.1 mph 27.6 mph N/A   Overcast
10:15 AM 59.0 °F 46.4 °F 63% 30.04 in 10.0 mi SE 17.3 mph 26.5 mph N/A   Overcast
10:35 AM 60.8 °F 46.4 °F 59% 30.03 in 10.0 mi SSE 21.9 mph 31.1 mph N/A   Mostly Cloudy
10:55 AM 62.6 °F 48.2 °F 59% 30.01 in 10.0 mi SE 20.7 mph 32.2 mph N/A   Scattered Clouds
11:15 AM 60.8 °F 48.2 °F 63% 30.01 in 10.0 mi SSE 20.7 mph 29.9 mph N/A   Mostly Cloudy
11:35 AM 60.8 °F 48.2 °F 63% 30.01 in 10.0 mi SSE 23.0 mph 32.2 mph N/A   Overcast
11:55 AM 62.6 °F 48.2 °F 59% 30.01 in 10.0 mi SE 19.6 mph 32.2 mph N/A   Overcast
12:15 PM 64.4 °F 48.2 °F 56% 30.01 in 10.0 mi SE 18.4 mph 25.3 mph N/A   Overcast
12:35 PM 64.4 °F 48.2 °F 56% 29.99 in 10.0 mi SE 17.3 mph 27.6 mph N/A   Overcast
12:55 PM 64.4 °F 48.2 °F 56% 29.97 in 10.0 mi SE 18.4 mph 27.6 mph N/A   Scattered Clouds
1:15 PM 64.4 °F 46.4 °F 52% 29.95 in 10.0 mi SE 18.4 mph 33.4 mph N/A   Clear
1:35 PM 64.4 °F 48.2 °F 56% 29.93 in 10.0 mi SE 17.3 mph 27.6 mph N/A   Clear
1:55 PM 66.2 °F 48.2 °F 52% 29.86 in 10.0 mi SSE 27.6 mph 41.4 mph N/A   Clear
2:15 PM 66.2 °F 50.0 °F 56% 29.90 in 10.0 mi SE 18.4 mph 29.9 mph N/A   Partly Cloudy
2:35 PM 66.2 °F 50.0 °F 56% 29.89 in 10.0 mi SE 18.4 mph 29.9 mph N/A   Scattered Clouds
2:55 PM 68.0 °F 50.0 °F 52% 29.88 in 10.0 mi SE 24.2 mph 32.2 mph N/A   Scattered Clouds
3:15 PM 71.6 °F 50.0 °F 46% 29.87 in 10.0 mi SE 25.3 mph 34.5 mph N/A   Partly Cloudy
3:35 PM 71.6 °F 50.0 °F 46% 29.85 in 10.0 mi SE 26.5 mph 36.8 mph N/A   Scattered Clouds
3:55 PM 69.8 °F 50.0 °F 49% 29.84 in 10.0 mi SSE 24.2 mph 31.1 mph N/A   Mostly Cloudy
4:15 PM 71.6 °F 51.8 °F 50% 29.82 in 10.0 mi SE 23.0 mph 35.7 mph N/A   Partly Cloudy
4:35 PM 73.4 °F 51.8 °F 47% 29.81 in 10.0 mi SSE 24.2 mph 36.8 mph N/A   Clear
4:55 PM 73.4 °F 53.6 °F 50% 29.80 in 10.0 mi SSE 24.2 mph 33.4 mph N/A   Partly Cloudy
5:15 PM 73.4 °F 53.6 °F 50% 29.81 in 10.0 mi SSE 26.5 mph 34.5 mph N/A   Scattered Clouds
5:55 PM 75.2 °F 55.4 °F 50% 29.82 in 10.0 mi South 25.3 mph - N/A   Mostly Cloudy
6:15 PM 73.4 °F 55.4 °F 53% 29.82 in 10.0 mi SSE 23.0 mph 29.9 mph N/A   Overcast
6:35 PM 73.4 °F 55.4 °F 53% 29.82 in 10.0 mi South 18.4 mph 26.5 mph N/A   Overcast
6:55 PM 71.6 °F 55.4 °F 57% 29.82 in 10.0 mi South 16.1 mph 24.2 mph N/A   Overcast
7:15 PM 71.6 °F 55.4 °F 57% 29.82 in 10.0 mi SSE 12.7 mph 19.6 mph N/A   Overcast
7:35 PM 71.6 °F 55.4 °F 57% 29.82 in 10.0 mi SSE 13.8 mph - N/A   Overcast
7:55 PM 69.8 °F 57.2 °F 64% 29.83 in 10.0 mi SSE 11.5 mph - N/A   Overcast
8:15 PM 69.8 °F 57.2 °F 64% 29.84 in 10.0 mi SSE 10.4 mph - N/A   Overcast
8:35 PM 69.8 °F 57.2 °F 64% 29.84 in 10.0 mi SSE 12.7 mph - N/A   Overcast
8:55 PM 68.0 °F 57.2 °F 68% 29.84 in 10.0 mi SSE 12.7 mph - N/A   Overcast
9:15 PM 68.0 °F 57.2 °F 68% 29.85 in 10.0 mi SSE 13.8 mph - N/A   Overcast
9:35 PM 68.0 °F 57.2 °F 68% 29.84 in 10.0 mi SSE 13.8 mph 19.6 mph N/A   Overcast
9:55 PM 68.0 °F 57.2 °F 68% 29.84 in 10.0 mi SE 15.0 mph - N/A   Overcast
10:15 PM 68.0 °F 57.2 °F 68% 29.83 in 10.0 mi SE 15.0 mph - N/A   Overcast
10:35 PM 68.0 °F 59.0 °F 73% 29.83 in 10.0 mi SE 12.7 mph 21.9 mph N/A   Overcast
10:55 PM 68.0 °F 59.0 °F 73% 29.83 in 10.0 mi SE 11.5 mph - N/A   Overcast
11:15 PM 68.0 °F 59.0 °F 73% 29.82 in 10.0 mi SSE 13.8 mph 19.6 mph N/A   Overcast
11:35 PM 68.0 °F 59.0 °F 73% 29.82 in 10.0 mi SSE 15.0 mph - N/A   Overcast
11:55 PM 68.0 °F 59.0 °F 73% 29.82 in 10.0 mi SSE 16.1 mph 24.2 mph N/A   Overcast